GW4106 Weather Reports


time (UTC)temp
C
wind
direction
speed
KPH
gust
KPH
rain 1hr
cm
rain 24hr
cm
rain mn
cm
humidity
%
barometer
mb
20260510104518 14 0.0 0.0 0.00 0.00 0.00 97 1014.8
20260510104018 14 0.0 0.0 0.00 0.00 0.00 97 1014.8
20260510103538 14 0.0 1.6 0.00 0.00 0.00 97 1014.6
20260510103038 14 0.0 0.0 0.00 0.00 0.00 97 1014.6
20260510102539 14 0.0 0.0 0.00 0.00 0.00 97 1014.5
20260510102018 14 0.0 0.0 0.00 0.00 0.00 97 1014.4
20260510101518 14 0.0 0.0 0.00 0.00 0.00 97 1014.2
20260510101058 14 0.0 0.0 0.00 0.00 0.00 97 1014.2
20260510100538 14 0.0 0.0 0.00 0.00 0.00 97 1014.1
20260510100018 13 0.0 0.0 0.00 0.00 0.00 97 1014.0
20260510095518 14 0.0 0.0 0.00 0.00 0.00 97 1013.9
20260510095038 14 0.0 0.0 0.00 0.00 0.00 97 1013.7
20260510094538 14 0.0 0.0 0.00 0.00 0.00 97 1013.7
20260510094018 14 0.0 0.0 0.00 0.00 0.00 97 1013.6
20260510093518 14 0.0 0.0 0.00 0.00 0.00 97 1013.7
20260510093018 14 0.0 0.0 0.00 0.00 0.00 97 1013.7
20260510092518 14 0.0 0.0 0.00 0.00 0.00 97 1013.6
20260510092038 15 0.0 0.0 0.00 0.00 0.00 97 1013.4
20260510091518 14 0.0 0.0 0.00 0.00 0.00 97 1013.4
20260510091018 14 0.0 0.0 0.00 0.00 0.00 96 1013.4
20260510090518 15 0.0 1.6 0.00 0.00 0.00 97 1013.2
20260510090058 15 203 1.6 3.2 0.00 0.00 0.00 97 1013.0
20260510085538 15 0.0 1.6 0.00 0.00 0.00 97 1013.1
20260510085038 15 0.0 0.0 0.00 0.00 0.00 97 1013.3
20260510084518 15 0.0 0.0 0.00 0.00 0.00 97 1013.3
20260510084039 15 0.0 0.0 0.00 0.00 0.00 97 1013.4
20260510083538 15 0.0 0.0 0.00 0.00 0.00 96 1013.3
20260510083018 15 0.0 0.0 0.00 0.00 0.00 97 1013.2
20260510082518 15 0.0 0.0 0.00 0.00 0.00 96 1013.1
20260510082018 15 0.0 0.0 0.00 0.00 0.00 96 1013.0
20260510081520 15 0.0 0.0 0.00 0.00 0.00 96 1013.2
20260510081020 15 0.0 0.0 0.00 0.00 0.00 96 1013.2
20260510080520 15 0.0 0.0 0.00 0.00 0.00 96 1013.2
20260510080020 15 0.0 0.0 0.00 0.00 0.00 96 1013.2
20260510075520 15 0.0 0.0 0.00 0.00 0.00 96 1013.2
20260510075020 15 0.0 0.0 0.00 0.00 0.00 96 1013.1
20260510074519 15 0.0 0.0 0.00 0.00 0.00 96 1013.1
20260510074040 15 0.0 0.0 0.00 0.00 0.00 96 1012.9
20260510073538 15 0.0 0.0 0.00 0.00 0.00 96 1012.9
20260510073020 15 0.0 0.0 0.00 0.00 0.00 96 1013.0
20260510072520 16 0.0 0.0 0.00 0.00 0.00 96 1013.0
20260510072040 16 0.0 0.0 0.00 0.00 0.00 96 1013.0
20260510071600 16 0.0 0.0 0.00 0.00 0.00 96 1013.1
20260510071019 16 0.0 0.0 0.00 0.00 0.00 96 1013.1
20260510070519 16 0.0 0.0 0.00 0.00 0.00 96 1013.1
20260510070019 15 0.0 0.0 0.00 0.00 0.00 96 1013.1
20260510065519 16 0.0 0.0 0.00 0.00 0.00 96 1013.1
20260510065019 16 0.0 0.0 0.00 0.00 0.00 95 1013.0
20260510064520 16 0.0 0.0 0.00 0.00 0.00 95 1013.0
20260510064019 16 0.0 0.0 0.00 0.00 0.00 96 1013.0
20260510063519 16 0.0 1.6 0.00 0.00 0.00 95 1013.0
20260510063019 17 0.0 4.8 0.00 0.00 0.00 96 1012.8
20260510062539 17 0.0 0.0 0.00 0.00 0.00 96 1012.9
20260510062019 17 0.0 0.0 0.00 0.00 0.00 95 1012.8
20260510061519 17 0.0 0.0 0.00 0.00 0.00 95 1012.8
20260510061040 17 0.0 1.6 0.00 0.00 0.00 95 1012.8
20260510060539 17 0.0 0.0 0.00 0.00 0.00 95 1012.9
20260510060059 17 0.0 0.0 0.00 0.00 0.00 95 1012.9
20260510055519 17 0.0 4.8 0.00 0.00 0.00 95 1012.9
20260510055019 17 0.0 4.8 0.00 0.00 0.00 94 1013.0
20260510054519 17 0.0 3.2 0.00 0.00 0.00 95 1012.9
20260510054019 17 203 1.6 3.2 0.00 0.00 0.00 95 1013.0
20260510053519 17 203 1.6 3.2 0.00 0.00 0.00 95 1013.1
20260510053019 17 203 1.6 3.2 0.00 0.00 0.00 95 1012.9
20260510052519 17 0.0 1.6 0.00 0.00 0.00 95 1012.9
20260510052019 17 0.0 1.6 0.00 0.00 0.00 95 1012.9
20260510051519 17 0.0 1.6 0.00 0.00 0.00 95 1013.0
20260510051100 17 0.0 0.0 0.00 0.00 0.00 95 1012.9
20260510050519 17 0.0 0.0 0.00 0.00 0.00 94 1012.9
20260510050019 17 0.0 0.0 0.00 0.00 0.00 94 1012.9
20260510045519 17 0.0 1.6 0.00 0.00 0.00 94 1012.8
20260510045020 17 0.0 0.0 0.00 0.00 0.00 94 1012.8
20260510044539 17 0.0 3.2 0.00 0.00 0.00 93 1012.8
20260510044019 18 0.0 1.6 0.00 0.00 0.00 93 1012.8
20260510043519 18 0.0 3.2 0.00 0.00 0.00 92 1012.8
20260510043020 18 0.0 4.8 0.00 0.00 0.00 92 1012.7
20260510042519 18 0.0 3.2 0.00 0.00 0.00 92 1012.7
20260510042020 18 203 1.6 3.2 0.00 0.00 0.00 92 1012.7
20260510041519 18 0.0 3.2 0.00 0.00 0.00 92 1012.7
20260510041040 18 0.0 1.6 0.00 0.00 0.00 92 1012.7
20260510040519 18 203 1.6 3.2 0.00 0.00 0.00 93 1012.8
20260510040019 18 203 1.6 4.8 0.00 0.00 0.00 94 1012.8
20260510035519 18 203 1.6 3.2 0.00 0.00 0.00 94 1012.9
20260510035019 18 0.0 1.6 0.00 0.00 0.00 94 1012.9
20260510034519 18 0.0 1.6 0.00 0.00 0.00 94 1013.0
20260510034019 17 0.0 0.0 0.00 0.00 0.00 94 1013.0
20260510033519 17 0.0 4.8 0.00 0.00 0.00 95 1013.0
20260510033019 17 0.0 0.0 0.00 0.00 0.00 94 1013.0
20260510032519 17 0.0 0.0 0.00 0.00 0.00 94 1013.0
20260510032019 17 0.0 0.0 0.00 0.00 0.00 94 1013.0
20260510031519 17 0.0 0.0 0.00 0.00 0.00 94 1013.0
20260510031019 17 0.0 0.0 0.00 0.00 0.00 94 1012.8
20260510030519 17 0.0 0.0 0.00 0.00 0.00 94 1012.8
20260510030019 17 0.0 0.0 0.00 0.00 0.00 94 1012.7
20260510025519 17 0.0 0.0 0.00 0.00 0.00 93 1012.7
20260510025019 17 0.0 0.0 0.00 0.00 0.00 93 1012.7
20260510024519 17 0.0 0.0 0.00 0.00 0.00 93 1012.6
20260510024019 18 0.0 0.0 0.00 0.00 0.00 93 1012.6
20260510023519 18 0.0 0.0 0.00 0.00 0.00 93 1012.5
20260510023019 18 0.0 0.0 0.00 0.00 0.00 93 1012.4
20260510022519 18 0.0 0.0 0.00 0.00 0.00 93 1012.3
20260510022019 18 0.0 0.0 0.00 0.00 0.00 92 1012.2
20260510021539 18 0.0 0.0 0.00 0.00 0.00 92 1012.1
20260510021052 18 0.0 0.0 0.00 0.00 0.00 92 1012.1
20260510020957 18 196 0.0 0.0 0.00 0.00 0.00 92 1012.0
20260510020019 18 0.0 0.0 0.00 0.00 0.00 91 1011.9
20260510015519 18 0.0 0.0 0.00 0.00 0.00 90 1011.8
20260510015019 19 0.0 0.0 0.00 0.00 0.00 90 1011.7
20260510014519 19 0.0 0.0 0.00 0.00 0.00 89 1011.7
20260510014019 20 0.0 0.0 0.00 0.00 0.00 89 1011.5
20260510013519 20 0.0 0.0 0.00 0.00 0.00 88 1011.4
20260510013039 20 0.0 0.0 0.00 0.00 0.00 88 1011.3
20260510012519 20 0.0 0.0 0.00 0.00 0.00 88 1011.2
20260510012059 20 0.0 0.0 0.00 0.00 0.00 87 1011.2
20260510011539 21 0.0 4.8 0.00 0.00 0.00 85 1011.1
20260510011019 21 0.0 0.0 0.00 0.00 0.00 85 1011.1
20260510010519 21 0.0 0.0 0.00 0.00 0.00 85 1010.9
20260510010019 21 0.0 0.0 0.00 0.00 0.00 84 1010.8
20260510005519 21 0.0 1.6 0.00 0.00 0.00 84 1010.7
20260510005019 22 0.0 1.6 0.00 0.00 0.00 81 1010.6
20260510004519 22 0.0 1.6 0.00 0.00 0.00 77 1010.6
20260510004019 22 203 1.6 3.2 0.00 0.00 0.00 76 1010.4
20260510003539 23 203 1.6 3.2 0.00 0.00 0.00 76 1010.4
20260510003019 23 203 1.6 3.2 0.00 0.00 0.00 73 1010.4
20260510002539 24 0.0 0.0 0.00 0.00 0.00 71 1010.2
20260510002018 25 0.0 0.0 0.00 0.00 0.00 70 1010.2
20260510001519 25 0.0 1.6 0.00 0.00 0.00 70 1010.1
20260510001019 25 203 1.6 3.2 0.00 0.00 0.00 67 1010.1
20260510000518 25 203 1.6 4.8 0.00 0.00 0.00 66 1010.2
20260510000019 25 203 1.6 4.8 0.00 0.00 0.00 67 1010.2
20260509235539 26 203 1.6 4.8 0.00 0.00 0.00 65 1010.1
20260509235029 26 180 1.6 4.8 0.00 0.00 0.00 64 1010.0
20260509234039 26 180 1.6 4.8 0.00 0.00 0.00 65 1009.9
20260509233519 26 180 1.6 4.8 0.00 0.00 0.00 62 1010.0
20260509233018 26 0.0 3.2 0.00 0.00 0.00 66 1010.0
20260509232519 26 180 1.6 3.2 0.00 0.00 0.00 64 1010.0
20260509232059 26 0.0 3.2 0.00 0.00 0.00 63 1010.1
20260509231539 26 180 1.6 4.8 0.00 0.00 0.00 64 1010.1
20260509231018 26 180 1.6 4.8 0.00 0.00 0.00 63 1010.1
20260509230518 26 180 3.2 6.4 0.00 0.00 0.00 65 1010.0
20260509230019 26 180 1.6 6.4 0.00 0.00 0.00 64 1010.0
20260509225538 26 158 3.2 8.0 0.00 0.00 0.00 66 1010.1
20260509225018 26 180 3.2 8.0 0.00 0.00 0.00 64 1010.1
20260509224518 26 180 3.2 6.4 0.00 0.00 0.00 67 1010.1
20260509224018 26 158 3.2 8.0 0.00 0.00 0.00 65 1010.0
20260509223518 26 158 3.2 8.0 0.00 0.00 0.00 64 1009.9
20260509223019 26 180 4.8 8.0 0.00 0.00 0.00 65 1009.9
20260509222518 26 180 1.6 4.8 0.00 0.00 0.00 65 1009.7
20260509222050 26 180 3.2 9.7 0.00 0.00 0.00 66 1009.7
20260509222003 26 172 6.4 8.0 0.00 0.00 0.00 66 1009.5
20260509221019 26 293 1.6 3.2 0.00 0.00 0.00 66 1009.7
20260509220538 26 293 1.6 4.8 0.00 0.00 0.00 65 1009.7
20260509220038 26 293 3.2 6.4 0.00 0.00 0.00 67 1009.7
20260509215518 26 315 3.2 4.8 0.00 0.00 0.00 67 1009.6
20260509215018 26 315 1.6 3.2 0.00 0.00 0.00 66 1009.5
20260509214538 26 315 3.2 6.4 0.00 0.00 0.00 65 1009.6
20260509214018 26 293 4.8 8.0 0.00 0.00 0.00 66 1009.8
20260509213538 26 270 4.8 9.7 0.00 0.00 0.00 63 1009.9
20260509213018 26 270 4.8 8.0 0.00 0.00 0.00 65 1009.9
20260509212518 26 293 6.4 11.3 0.00 0.00 0.00 65 1010.0
20260509212018 26 270 3.2 4.8 0.00 0.00 0.00 68 1010.0
20260509211518 26 203 3.2 8.0 0.00 0.00 0.00 65 1010.0
20260509211038 26 338 1.6 9.7 0.00 0.00 0.00 63 1010.0
20260509210518 26 248 3.2 6.4 0.00 0.00 0.00 64 1010.1
20260509210018 26 225 3.2 4.8 0.00 0.00 0.00 64 1010.1
20260509205518 26 135 1.6 8.0 0.00 0.00 0.00 65 1010.1
20260509205018 26 225 3.2 4.8 0.00 0.00 0.00 64 1010.0
20260509204538 26 293 4.8 9.7 0.00 0.00 0.00 66 1010.2
20260509204018 26 315 3.2 8.0 0.00 0.00 0.00 66 1010.1
20260509203521 26 270 6.4 14.5 0.00 0.00 0.00 66 1010.3
20260509203018 26 180 1.6 6.4 0.00 0.00 0.00 65 1010.4
20260509202518 26 135 4.8 8.0 0.00 0.00 0.00 68 1010.4
20260509202111 25 130 4.8 12.9 0.00 0.00 0.00 68 1010.2
20260509202023 25 135 4.8 8.0 0.00 0.00 0.00 72 1010.4
20260509201559 25 158 4.8 12.9 0.00 0.00 0.00 72 1010.6
20260509201019 25 158 4.8 9.7 0.00 0.00 0.00 71 1010.5
20260509200518 25 203 1.6 8.0 0.00 0.00 0.00 69 1010.6
20260509200018 25 180 3.2 6.4 0.00 0.00 0.00 69 1010.7
20260509195518 25 135 3.2 8.0 0.00 0.00 0.00 69 1010.6
20260509195020 25 180 3.2 9.7 0.00 0.00 0.00 67 1010.6
20260509194518 25 180 1.6 6.4 0.00 0.00 0.00 69 1010.6
20260509194020 25 180 6.4 11.3 0.00 0.00 0.00 66 1010.7
20260509193520 26 135 8.0 16.1 0.00 0.00 0.00 63 1010.7
20260509193020 26 270 1.6 4.8 0.00 0.00 0.00 63 1010.8
20260509192520 26 270 3.2 6.4 0.00 0.00 0.00 65 1010.8
20260509192020 26 248 4.8 11.3 0.00 0.00 0.00 65 1010.7
20260509191520 26 270 6.4 14.5 0.00 0.00 0.00 66 1010.8
20260509191020 26 248 4.8 14.5 0.00 0.00 0.00 64 1010.8
20260509190519 26 293 4.8 12.9 0.00 0.00 0.00 64 1010.9
20260509190020 26 248 6.4 12.9 0.00 0.00 0.00 65 1010.9
20260509185519 26 225 6.4 9.7 0.00 0.00 0.00 65 1010.9
20260509185020 26 248 4.8 11.3 0.00 0.00 0.00 66 1010.8
20260509184520 25 248 4.8 11.3 0.00 0.00 0.00 63 1010.9
20260509184100 26 203 4.8 14.5 0.00 0.00 0.00 70 1010.9
20260509183520 26 225 6.4 12.9 0.00 0.00 0.00 68 1011.0
20260509183019 26 293 3.2 11.3 0.00 0.00 0.00 65 1011.0
20260509182600 26 293 1.6 4.8 0.00 0.00 0.00 65 1010.9
20260509182019 26 293 1.6 4.8 0.00 0.00 0.00 60 1011.0
20260509181520 25 293 1.6 4.8 0.00 0.00 0.00 65 1011.0
20260509181019 25 293 3.2 8.0 0.00 0.00 0.00 64 1011.1
20260509180540 25 293 4.8 8.0 0.00 0.00 0.00 65 1011.1
20260509180019 25 315 4.8 8.0 0.00 0.00 0.00 64 1011.2
20260509175519 25 293 3.2 6.4 0.00 0.00 0.00 66 1011.2
20260509175039 25 315 1.6 3.2 0.00 0.00 0.00 64 1011.3
20260509174519 25 315 3.2 6.4 0.00 0.00 0.00 65 1011.4
20260509174019 25 23 4.8 8.0 0.00 0.00 0.00 65 1011.4
20260509173519 25 135 1.6 4.8 0.00 0.00 0.00 66 1011.3
20260509173019 25 135 4.8 11.3 0.00 0.00 0.00 68 1011.4
20260509172519 25 113 4.8 9.7 0.00 0.00 0.00 65 1011.4
20260509172040 25 113 4.8 9.7 0.00 0.00 0.00 63 1011.6
20260509171519 25 113 6.4 12.9 0.00 0.00 0.00 63 1011.6
20260509171022 25 90 3.2 6.4 0.00 0.00 0.00 64 1011.5
20260509170539 24 90 3.2 6.4 0.00 0.00 0.00 64 1011.5
20260509170019 24 338 3.2 6.4 0.00 0.00 0.00 65 1011.5
20260509165601 25 315 3.2 8.0 0.00 0.00 0.00 71 1011.6
20260509165039 24 293 4.8 9.7 0.00 0.00 0.00 70 1011.5
20260509164519 24 293 6.4 11.3 0.00 0.00 0.00 65 1011.5
20260509164019 24 68 3.2 9.7 0.00 0.00 0.00 66 1011.5
20260509163519 24 0 3.2 8.0 0.00 0.00 0.00 65 1011.4
20260509163019 24 0 1.6 6.4 0.00 0.00 0.00 65 1011.5
20260509162539 24 0 3.2 12.9 0.00 0.00 0.00 65 1011.4
20260509162059 23 270 4.8 9.7 0.00 0.00 0.00 68 1011.5
20260509161519 23 293 6.4 11.3 0.00 0.00 0.00 65 1011.6
20260509161039 23 293 4.8 11.3 0.00 0.00 0.00 65 1011.6
20260509160519 23 293 3.2 4.8 0.00 0.00 0.00 71 1011.7
20260509160019 23 293 1.6 3.2 0.00 0.00 0.00 69 1011.5
20260509155519 23 293 1.6 3.2 0.00 0.00 0.00 68 1011.5
20260509155019 23 293 4.8 11.3 0.00 0.00 0.00 67 1011.6
20260509154519 23 0 4.8 16.1 0.00 0.00 0.00 70 1011.5
20260509154019 23 0 4.8 12.9 0.00 0.00 0.00 69 1011.5
20260509153519 23 23 1.6 3.2 0.00 0.00 0.00 71 1011.3
20260509153019 22 0 3.2 8.0 0.00 0.00 0.00 72 1011.4
20260509152539 22 315 3.2 8.0 0.00 0.00 0.00 73 1011.3
20260509152039 22 338 3.2 8.0 0.00 0.00 0.00 77 1011.2
20260509151518 22 338 1.6 6.4 0.00 0.00 0.00 76 1011.1
20260509151019 22 338 3.2 6.4 0.00 0.00 0.00 77 1011.1
20260509150519 22 270 3.2 6.4 0.00 0.00 0.00 78 1011.1
20260509150019 22 315 4.8 12.9 0.00 0.00 0.00 78 1011.0
20260509145519 21 293 4.8 6.4 0.00 0.00 0.00 80 1011.0
20260509145019 21 293 6.4 11.3 0.00 0.00 0.00 81 1011.0
20260509144519 21 293 3.2 12.9 0.00 0.00 0.00 82 1011.0
20260509144019 21 293 4.8 11.3 0.00 0.00 0.00 83 1011.1
20260509143519 20 293 3.2 8.0 0.00 0.00 0.00 84 1011.0
20260509143019 20 225 3.2 9.7 0.00 0.00 0.00 86 1011.0
20260509142539 20 315 3.2 6.4 0.00 0.00 0.00 88 1011.1
20260509142310 19 305 3.2 9.7 0.00 0.00 0.00 88 1010.9
20260509142029 19 293 3.2 6.4 0.00 0.00 0.00 88 1011.1
20260509141539 19 270 4.8 11.3 0.00 0.00 0.00 89 1011.1
20260509141018 19 270 3.2 12.9 0.00 0.00 0.00 91 1011.1
20260509140519 18 180 4.8 12.9 0.00 0.00 0.00 90 1011.1
20260509140019 18 225 4.8 12.9 0.00 0.00 0.00 92 1011.2
20260509135518 18 180 4.8 9.7 0.00 0.00 0.00 93 1011.2
20260509135019 17 293 3.2 8.0 0.00 0.00 0.00 93 1011.2
20260509134538 17 293 3.2 8.0 0.00 0.00 0.00 95 1011.1
20260509134018 17 270 1.6 8.0 0.00 0.00 0.00 95 1011.0
20260509133519 16 293 3.2 9.7 0.00 0.00 0.00 96 1010.9
20260509133018 16 248 3.2 9.7 0.00 0.00 0.00 96 1011.1
20260509132518 16 270 4.8 11.3 0.00 0.00 0.00 96 1011.2
20260509132018 16 180 4.8 9.7 0.00 0.00 0.00 96 1011.3
20260509131539 16 225 3.2 9.7 0.00 0.00 0.00 97 1011.3
20260509131018 16 180 3.2 9.7 0.00 0.00 0.00 96 1011.3
20260509130518 15 180 3.2 9.7 0.00 0.00 0.00 96 1011.4
20260509130018 15 158 3.2 8.0 0.00 0.00 0.00 96 1011.5
20260509125518 15 158 3.2 6.4 0.00 0.00 0.00 97 1011.5
20260509125018 15 225 3.2 8.0 0.00 0.00 0.00 97 1011.4
20260509124518 15 158 4.8 8.0 0.00 0.00 0.00 97 1011.4
20260509124018 15 158 4.8 9.7 0.00 0.00 0.00 97 1011.4
20260509123539 14 158 4.8 9.7 0.00 0.00 0.00 97 1011.4
20260509123018 14 158 3.2 8.0 0.00 0.00 0.00 97 1011.5
20260509122518 14 180 3.2 9.7 0.00 0.00 0.00 97 1011.4
20260509122018 14 0.0 3.2 0.00 0.00 0.00 97 1011.3
20260509121559 14 0.0 3.2 0.00 0.00 0.00 97 1011.2
20260509121018 13 0.0 0.0 0.00 0.00 0.00 97 1011.0
20260509120538 13 0.0 0.0 0.00 0.00 0.00 97 1010.9
20260509120018 13 0.0 0.0 0.00 0.00 0.00 97 1010.8
20260509115518 13 180 1.6 4.8 0.00 0.00 0.00 97 1010.8
20260509115018 13 180 3.2 8.0 0.00 0.00 0.00 97 1011.0
20260509114518 13 158 4.8 8.0 0.00 0.00 0.00 97 1011.1
20260509114018 13 180 4.8 8.0 0.00 0.00 0.00 97 1011.1
20260509113518 12 180 4.8 9.7 0.00 0.00 0.00 97 1011.0
20260509113059 12 248 1.6 3.2 0.00 0.00 0.00 97 1010.9
20260509112518 12 0.0 0.0 0.00 0.00 0.00 97 1010.8
20260509112018 12 0.0 0.0 0.00 0.00 0.00 96 1010.5
20260509111518 11 0.0 1.6 0.00 0.00 0.00 96 1010.5
20260509111018 12 0.0 0.0 0.00 0.00 0.00 96 1010.5
20260509110518 12 0.0 0.0 0.00 0.00 0.00 97 1010.4
20260509110018 12 0.0 0.0 0.00 0.00 0.00 96 1010.3
20260509105538 12 0.0 0.0 0.00 0.00 0.00 96 1010.3
20260509105018 12 0.0 1.6 0.00 0.00 0.00 96 1010.4